Location: Houston
(29.7630°N, 95.3630°W)
Time: 10:51:25
(UTC-06:00)

Saudisat 1A - Visible Passes

Search period start: 27 January 2015 00:00
Search period end: 06 February 2015 00:00
Orbit: 589 x 613 km, 64.6° (Epoch: 27 January)

Date Brightness Start Highest point End Pass type
(mag) Time Alt. Az. Time Alt. Az. Time Alt. Az.
27 Jan 10.4 04:48:10 18° NE 04:48:10 18° NE 04:49:19 10° NE visible
27 Jan 9.9 06:25:00 13° NW 06:25:00 13° NW 06:26:47 10° NNW visible
28 Jan 10.6 05:00:33 12° NNE 05:00:33 12° NNE 05:00:56 10° NNE visible
